When you browse on this site, cookies collect data to enhance your experience and personalize the content and advertising you see.
Visit our Privacy Policy to learn more. By continuing to use the site, you agree to this use of cookies and data.
  • In Switzerland
  • List of Countries
  • For 7 days
  • Water Temperature
  • Satellite Maps
  • Weather Map
  • Weather Widgets
  • user-avatar
    Login

    Hourly Weather Xinzhou

    Today, 18 July, Thursday

    Time Temperature Precipitation Wind Pressure Humidity
    00:00 +23°C° 0 mm 1 mps 689 mmHg 84%
    01:00 +21°C° 0 mm 0 mps 689 mmHg 85%
    02:00 +21°C° 0 mm 0 mps 689 mmHg 88%
    03:00 +20°C° 0 mm 0 mps 689 mmHg 89%
    04:00 +20°C° 0 mm 0 mps 689 mmHg 90%
    05:00 +20°C° 0 mm 0 mps 689 mmHg 91%
    06:00 +21°C° 0 mm 0 mps 689 mmHg 86%
    07:00 +22°C° 0 mm 0 mps 689 mmHg 80%
    08:00 +23°C° 0 mm 0 mps 689 mmHg 75%
    09:00 +27°C° 0 mm 1 mps 690 mmHg 69%
    10:00 +29°C° 0 mm 1 mps 690 mmHg 62%
    11:00 +30°C° 0 mm 1 mps 690 mmHg 56%
    12:00 +31°C° 0.1 mm 2 mps 689 mmHg 53%
    13:00 +31°C° 0.1 mm 2 mps 689 mmHg 51%
    14:00 +32°C° 0.1 mm 2 mps 688 mmHg 49%
    15:00 +32°C° 0.2 mm 2 mps 688 mmHg 50%
    16:00 +33°C° 0.2 mm 3 mps 688 mmHg 51%
    17:00 +31°C° 0.2 mm 3 mps 688 mmHg 52%
    18:00 +30°C° 0.1 mm 3 mps 688 mmHg 58%
    19:00 +28°C° 0.1 mm 2 mps 688 mmHg 65%
    20:00 +27°C° 0.1 mm 2 mps 688 mmHg 71%
    21:00 +26°C° 0.1 mm 1 mps 688 mmHg 72%
    22:00 +26°C° 0.1 mm 1 mps 688 mmHg 74%
    23:00 +25°C° 0.1 mm 1 mps 689 mmHg 75%

    Tomorrow, 19 July, Friday

    Time Temperature Precipitation Wind Pressure Humidity
    00:00 +25°C° 0 mm 1 mps 688 mmHg 76%
    01:00 +24°C° 0 mm 1 mps 688 mmHg 76%
    02:00 +22°C° 0 mm 0 mps 688 mmHg 77%
    03:00 +22°C° 0 mm 0 mps 688 mmHg 78%
    04:00 +21°C° 0 mm 0 mps 687 mmHg 79%
    05:00 +21°C° 0 mm 0 mps 687 mmHg 81%
    06:00 +22°C° 0 mm 0 mps 688 mmHg 75%
    07:00 +24°C° 0 mm 0 mps 688 mmHg 70%
    08:00 +25°C° 0 mm 0 mps 689 mmHg 65%
    09:00 +28°C° 0 mm 1 mps 689 mmHg 60%
    10:00 +30°C° 0 mm 1 mps 689 mmHg 54%
    11:00 +32°C° 0 mm 2 mps 689 mmHg 48%
    12:00 +32°C° 0.1 mm 2 mps 688 mmHg 46%
    13:00 +33°C° 0.1 mm 3 mps 688 mmHg 45%
    14:00 +34°C° 0.1 mm 4 mps 688 mmHg 43%
    15:00 +33°C° 0 mm 3 mps 687 mmHg 45%
    16:00 +33°C° 0 mm 3 mps 687 mmHg 48%
    17:00 +31°C° 0 mm 3 mps 687 mmHg 50%
    18:00 +30°C° 0 mm 2 mps 687 mmHg 53%
    19:00 +29°C° 0 mm 2 mps 687 mmHg 55%
    20:00 +29°C° 0 mm 1 mps 687 mmHg 58%
    21:00 +28°C° 0.1 mm 1 mps 687 mmHg 60%
    22:00 +28°C° 0.1 mm 1 mps 687 mmHg 63%
    23:00 +27°C° 0.1 mm 1 mps 687 mmHg 65%

    Day after tomorrow, 20 July, Saturday

    Time Temperature Precipitation Wind Pressure Humidity
    00:00 +26°C° 0.7 mm 1 mps 686 mmHg 74%
    01:00 +25°C° 0.7 mm 1 mps 686 mmHg 83%
    02:00 +24°C° 0.7 mm 1 mps 686 mmHg 91%
    03:00 +23°C° 0.9 mm 1 mps 686 mmHg 92%
    04:00 +21°C° 0.9 mm 0 mps 686 mmHg 93%
    05:00 +21°C° 0.9 mm 0 mps 686 mmHg 94%
    06:00 +22°C° 0 mm 0 mps 686 mmHg 89%
    07:00 +23°C° 0 mm 0 mps 687 mmHg 83%
    08:00 +26°C° 0 mm 1 mps 687 mmHg 78%
    09:00 +28°C° 0 mm 1 mps 688 mmHg 69%
    10:00 +30°C° 0 mm 1 mps 688 mmHg 60%
    11:00 +32°C° 0 mm 1 mps 688 mmHg 51%
    12:00 +33°C° 0 mm 1 mps 687 mmHg 44%
    13:00 +35°C° 0 mm 2 mps 687 mmHg 38%
    14:00 +37°C° 0 mm 2 mps 687 mmHg 31%
    15:00 +37°C° 0 mm 2 mps 687 mmHg 30%
    16:00 +36°C° 0 mm 1 mps 687 mmHg 28%
    17:00 +36°C° 0 mm 1 mps 686 mmHg 26%
    18:00 +34°C° 0 mm 1 mps 686 mmHg 32%
    19:00 +32°C° 0 mm 1 mps 686 mmHg 38%
    20:00 +30°C° 0 mm 2 mps 686 mmHg 45%
    21:00 +29°C° 0 mm 1 mps 686 mmHg 48%
    22:00 +28°C° 0 mm 1 mps 686 mmHg 51%
    23:00 +27°C° 0 mm 1 mps 686 mmHg 54%

    21 July, Sunday

    Time Temperature Precipitation Wind Pressure Humidity
    00:00 +27°C° 0 mm 1 mps 686 mmHg 55%
    01:00 +26°C° 0 mm 1 mps 686 mmHg 57%
    02:00 +26°C° 0 mm 1 mps 686 mmHg 58%
    03:00 +24°C° 0 mm 0 mps 686 mmHg 60%
    04:00 +23°C° 0 mm 0 mps 686 mmHg 63%
    05:00 +23°C° 0 mm 0 mps 686 mmHg 65%
    06:00 +24°C° 0 mm 0 mps 686 mmHg 62%
    07:00 +26°C° 0 mm 0 mps 687 mmHg 58%
    08:00 +27°C° 0 mm 0 mps 687 mmHg 55%
    09:00 +29°C° 0 mm 0 mps 688 mmHg 49%
    10:00 +33°C° 0 mm 1 mps 688 mmHg 43%
    11:00 +35°C° 0 mm 1 mps 688 mmHg 37%
    12:00 +37°C° 0 mm 2 mps 688 mmHg 33%
    13:00 +38°C° 0 mm 2 mps 688 mmHg 30%
    14:00 +39°C° 0 mm 3 mps 687 mmHg 26%
    15:00 +38°C° 0 mm 3 mps 687 mmHg 28%
    16:00 +37°C° 0 mm 3 mps 686 mmHg 30%
    17:00 +36°C° 0 mm 4 mps 686 mmHg 32%
    18:00 +34°C° 0 mm 3 mps 686 mmHg 35%
    19:00 +32°C° 0 mm 2 mps 686 mmHg 38%
    20:00 +30°C° 0 mm 2 mps 686 mmHg 41%
    21:00 +30°C° 0 mm 2 mps 686 mmHg 43%
    22:00 +29°C° 0 mm 1 mps 686 mmHg 45%
    23:00 +28°C° 0 mm 1 mps 686 mmHg 46%

    22 July, Monday

    Time Temperature Precipitation Wind Pressure Humidity
    00:00 +28°C° 0.2 mm 1 mps 686 mmHg 52%
    01:00 +27°C° 0.2 mm 1 mps 686 mmHg 57%
    02:00 +26°C° 0.2 mm 1 mps 686 mmHg 62%
    03:00 +25°C° 0.2 mm 1 mps 686 mmHg 67%
    04:00 +24°C° 0.2 mm 1 mps 685 mmHg 72%
    05:00 +24°C° 0.2 mm 1 mps 685 mmHg 77%
    06:00 +23°C° 0.4 mm 2 mps 685 mmHg 79%
    07:00 +21°C° 0.4 mm 2 mps 685 mmHg 81%
    08:00 +21°C° 0.4 mm 2 mps 686 mmHg 83%
    09:00 +20°C° 2.5 mm 2 mps 685 mmHg 87%
    10:00 +20°C° 2.5 mm 2 mps 685 mmHg 91%
    11:00 +19°C° 2.5 mm 2 mps 685 mmHg 95%
    12:00 +20°C° 0.8 mm 2 mps 685 mmHg 94%
    13:00 +21°C° 0.8 mm 1 mps 684 mmHg 93%
    14:00 +21°C° 0.8 mm 1 mps 684 mmHg 92%
    15:00 +21°C° 0.1 mm 1 mps 684 mmHg 91%
    16:00 +22°C° 0.1 mm 1 mps 683 mmHg 90%
    17:00 +22°C° 0.1 mm 1 mps 683 mmHg 89%
    18:00 +22°C° 0 mm 1 mps 683 mmHg 89%
    19:00 +20°C° 0 mm 0 mps 683 mmHg 89%
    20:00 +20°C° 0 mm 0 mps 684 mmHg 90%
    21:00 +19°C° 0 mm 0 mps 684 mmHg 91%
    22:00 +19°C° 0 mm 0 mps 684 mmHg 92%
    23:00 +18°C° 0 mm 0 mps 684 mmHg 93%

    23 July, Tuesday

    Time Temperature Precipitation Wind Pressure Humidity
    00:00 +18°C° 0 mm 0 mps 684 mmHg 93%
    01:00 +18°C° 0 mm 0 mps 683 mmHg 93%
    02:00 +18°C° 0 mm 0 mps 683 mmHg 93%
    03:00 +18°C° 0 mm 0 mps 683 mmHg 93%
    04:00 +17°C° 0 mm 0 mps 683 mmHg 93%
    05:00 +17°C° 0 mm 0 mps 683 mmHg 93%
    06:00 +19°C° 0 mm 0 mps 683 mmHg 89%
    07:00 +20°C° 0 mm 0 mps 684 mmHg 85%
    08:00 +23°C° 0 mm 1 mps 684 mmHg 80%
    09:00 +25°C° 0 mm 1 mps 684 mmHg 71%
    10:00 +27°C° 0 mm 1 mps 684 mmHg 62%
    11:00 +29°C° 0 mm 2 mps 684 mmHg 53%
    12:00 +31°C° 0 mm 2 mps 684 mmHg 48%
    13:00 +32°C° 0 mm 2 mps 684 mmHg 43%
    14:00 +35°C° 0 mm 2 mps 684 mmHg 38%
    15:00 +35°C° 0 mm 2 mps 684 mmHg 35%
    16:00 +36°C° 0 mm 2 mps 684 mmHg 33%
    17:00 +36°C° 0 mm 2 mps 683 mmHg 30%
    18:00 +33°C° 0 mm 1 mps 683 mmHg 35%
    19:00 +31°C° 0 mm 1 mps 683 mmHg 40%
    20:00 +28°C° 0 mm 1 mps 683 mmHg 46%
    21:00 +28°C° 0 mm 1 mps 683 mmHg 49%
    22:00 +27°C° 0 mm 1 mps 683 mmHg 53%
    23:00 +26°C° 0 mm 1 mps 683 mmHg 57%
    Show more